Other Public Products
Issued by NWS Grand Forks, ND

Home | Current Version | Previous Version | Graphics & Text | Print | Product List | Glossary On
Versions: 1 2 3 4 5 6 7 8 9 10 11 12 13 14 15 16 17 18 19 20 21 22 23 24 25 26 27 28 29 30 31 32 33 34 35 36 37 38 39 40 41 42 43 44 45 46 47 48 49 50
000
FPUS83 KFGF 010531
OPUFGF
PRAIRIE TO PINES WEATHER ROUNDUP
NATIONAL WEATHER SERVICE EASTERN NORTH DAKOTA/GRAND FORKS ND
1100 PM CST SAT JAN 31 2015

 **SATELLITE DATA USED TO AUGMENT SKY COVER AT AUTOMATED STATIONS**
 *****  WEATHER ACROSS EASTERN NORTH DAKOTA  *****

CITY           SKY/WX    TMP DP  RH WIND       PRES   REMARKS
GRAND FORKS    PTCLDY    -8 -16  67 N12       30.54R WCI -27
GRAND FORKS AF PTCLDY    -9 -18  63 N17       30.53R WCI -32
GRAND CITY NWS   N/A     -9 N/A N/A N24         N/A  WCI -36
BUXTON           N/A     -6 -13  72 N14         N/A  WCI -27
DEVILS LAKE    PTCLDY    -9 -20  59 NE10      30.47R WCI -28
FARGO          PTCLDY    -1 -10  65 N21       30.42R WCI -24
WAHPETON ARPT  CLOUDY     9  -4  56 N17G23    30.35R WCI -10
$$

 *****  WEATHER ACROSS CENTRAL AND WESTERN NORTH DAKOTA  *****

CITY           SKY/WX    TMP DP  RH WIND       PRES   REMARKS
JAMESTOWN      CLOUDY    -4 -13  65 N20       30.40R WCI -27
BISMARCK       LGT SNOW  -3 -10  72 NE14      30.43R WCI -22
MINOT          CLOUDY    -8 -18  61 N12       30.48R WCI -27
MINOT AFB      MOCLDY    -8 -16  67 N10       30.49S WCI -26
GARRISON         N/A     -3  -9  75 N12       30.42R WCI -21
WILLISTON      PTCLDY    -3 -11  68 NE9       30.46S WCI -19
DICKINSON      LGT SNOW  -1  -7  75 NE15      30.31R WCI -21
HETTINGER      LGT SNOW   1  -4  79 N13       30.29R WCI -17
$$

 *****  OTHER OBSERVATIONS NORTHEAST NORTH DAKOTA  *****

CITY           SKY/WX    TMP DP  RH WIND       PRES   REMARKS
WALHALLA         N/A     -9 -18  64 N12       30.59S WCI -29
LANGDON        NOT AVBL
CAVALIER       FAIR      -9 -18  64 N10G20    30.59R WCI -28
GRAFTON        NOT AVBL
CANDO          CLOUDY   -11 -18  70 NE14      30.51S WCI -33
FORT TOTTEN    NOT AVBL
ROLLA          CLOUDY   -11 -18  70 N13       30.48S WCI -32
RUGBY          FAIR      -9 -18  64 NE9       30.50S WCI -27
 ***** THE ABOVE OBSERVATIONS ARE NON NWS ARE NOT QUALITY
        CONTROLLED AND MAY MIS-REPORT RAIN FOR SNOW...
$$

 *****  OTHER OBSERVATIONS SOUTHEAST NORTH DAKOTA *****

CITY           SKY/WX    TMP DP  RH WIND       PRES   REMARKS
COOPERSTOWN    NOT AVBL
VALLEY CITY    CLOUDY    -2 -11  65 N17       30.41R WCI -24
OAKES            N/A      0  -8  71 N25G31    30.36R WCI -25
GWINNER        CLOUDY     1  -9  60 N24       30.36R WCI -22
SHEYENNE NWR     N/A     -2 -13  60 N16       29.95  WCI -23
BUFFALO        NOT AVBL
WYNDMERE         N/A      0  -9  65 N16         N/A  WCI -21
 ***** THE ABOVE OBSERVATIONS ARE NON NWS ARE NOT QUALITY
       CONTROLLED AND MAY MIS-REPORT RAIN FOR SNOW...
$$

  *****  WEATHER ACROSS NORTHERN MINNESOTA  *****

CITY           SKY/WX    TMP DP  RH WIND       PRES   REMARKS
FLAG ISLAND    MOCLDY   -11 -18  70 NW6       30.50R WCI -25
WARROAD        MOCLDY   -11 -18  70 N7        30.50S WCI -26
ROSEAU         MOCLDY   -11 -18  70 N7        30.51S WCI -26
HALLOCK        PTCLDY   -11 -20  64 N12       30.56R WCI -31
THF RVR FALLS  PTCLDY    -6 -15  65 NE12      30.46R WCI -24
HALSTAD          N/A     -3 -13  63 N18         N/A  WCI -26
FOSSTON        MOCLDY    -8 -15  71 N10       30.41S WCI -26
BAUDETTE       CLOUDY   -11 -18  71 N6        30.46R WCI -25
WASKISH        MOCLDY    -9 -15  77 CALM      30.44R
CROOKSTON      PTCLDY    -6 -11  77 N14       30.51R WCI -26
$$
  *****  WEATHER ACROSS CENTRAL AND WEST MINNESOTA  *****

CITY           SKY/WX    TMP DP  RH WIND       PRES   REMARKS
BEMIDJI        MOCLDY    -6 -12  75 N8        30.38R WCI -21
PARK RAPIDS    MOCLDY     2  -7  66 NE10      30.31R WCI -14
WADENA         MOCLDY     5  -4  66 NE13G20   30.29S WCI -12
DETROIT LAKES  PTCLDY     3  -4  72 NE13      30.34R WCI -14
MOORHEAD       PTCLDY     1  -6  71 N17G26    30.41R WCI -19
FERGUS FALLS   MOCLDY     7  -6  56 NE14      30.34S WCI -10
ELBOW LAKE     CLOUDY    10   0  64 NE13G23   30.26S WCI  -6
MORRIS MN      CLOUDY    16   3  57 NE17      30.24R WCI   0
STAPLES        CLOUDY     9  -4  56 N8G16     30.29R WCI  -4
WHEATON        CLOUDY     9   0  66 N16       30.32R WCI  -9
$$
  *****  WEATHER ELSEWHERE ACROSS MINNESOTA  *****

CITY           SKY/WX    TMP DP  RH WIND       PRES   REMARKS
DULUTH         CLOUDY     3  -8  60 N10       30.30R WCI -12
INTRNTL FALLS  PTCLDY   -10 -18  67 N6        30.44R WCI -23
ELY            MOCLDY    -9 -15  77 CALM      30.38R
CLOQUET        CLOUDY     3  -8  60 N8        30.31S WCI -10
BRAINERD       CLOUDY     9  -4  55 NE14      30.30R WCI  -7
HIBBING        MOCLDY    -1 -13  56 NE8       30.36R WCI -15
ALEXANDRIA     CLOUDY    12   1  61 NE14      30.24R WCI  -3
SAINT CLOUD    CLOUDY    18   3  52 NE13G20   30.24R WCI   5
MINNEAPOLIS    CLOUDY    23  10  57 NE15G21   30.20R WCI  10
$$

  *****  WEATHER ACROSS SOUTH DAKOTA  *****

CITY           SKY/WX    TMP DP  RH WIND       PRES   REMARKS
SIOUX FALLS    LGT SNOW  23  20  88 NE24      30.05R VSB 1   WCI   7
BROOKINGS      NOT AVBL
WATERTOWN      CLOUDY    10   2  69 NE17      30.16R WCI  -8
HURON          CLOUDY    14   4  64 N17       30.19R WCI  -3
SISSETON         N/A      7  -2  66 N20G26    30.30R WCI -13
ABERDEEN       MOCLDY     5  -5  63 N21G29    30.31R WCI -16
MITCHELL       LGT SNOW  18  15  88 N21G28    30.13R VSB 3/4 WCI   1
PIERRE         CLOUDY    11   1  64 N18       30.22R WCI  -7
MOBRIDGE       CLOUDY     7  -2  66 N22       30.28R WCI -14
RAPID CITY     LGT SNOW  12   9  87 NE15      30.15R FOG     WCI  -4
$$

  *****  SOME WEATHER IN NEARBY STATES *****

CITY           SKY/WX    TMP DP  RH WIND       PRES   REMARKS
GLASGOW MT     FLURRIES   4  -1  80 N6        30.45R WCI  -7
GREAT FALLS MT CLOUDY     7   3  84 N3        30.33S
CHEYENNE WY    CLOUDY    27  21  78 N23G31    29.90R WCI  12
SCOTTSBLUFF NE CLOUDY    24  21  88 N9        30.01R WCI  14
OMAHA NE       LGT SNOW  33  32  96 NE5       29.89F VSB 1
DES MOINES IA  LGT SNOW  34  31  88 E8        29.95F VSB 3/4
DAVENPORT IA   LGT SNOW  32  30  92 SE8       30.07F FOG     WCI  25
CHICAGO IL     LGT SNOW  31  29  92 E8        30.15S VSB 3/4 WCI  23
EAU CLAIRE WI  CLOUDY    19   9  65 NE10      30.22R WCI   7
LA CROSSE WI   LGT SNOW  28  23  81 NE9       30.16F WCI  19
$$

  *****  SOME NATIONAL WEATHER *****

CITY           SKY/WX    TMP DP  RH WIND       PRES   REMARKS
LA GUARDIA NY  CLEAR     21   7  54 NW9       30.21S WCI  11
RALEIGH NC     MOCLDY    33  17  51 CALM      30.28S
ATLANTA GA     CLOUDY    46  23  40 CALM      30.26F
NEW ORLEANS LA MOCLDY    57  51  80 E7        30.14S
OKLAHOMA CITY  LGT RAIN  45  42  89 S10       29.86F FOG
ALBUQUERQUE NM MOCLDY    38  34  85 N5        29.96R
SALT LAKE CITY CLEAR     35  30  82 N5        30.14R
LOS ANGELES CA CLEAR     59  55  87 NE3       29.97R
BOISE ID       PTCLDY    33  28  81 CALM      30.17R
SEATTLE WA     CLOUDY    43  40  89 N8        30.12F
$$

*** WEATHER ACROSS MANITOBA...SASKATCHEWAN AND ONTARIO ***
                ***ONTARIO***

CITY           SKY/WX    TMP DP  RH WIND       PRES   REMARKS
GERALDTON      CLEAR    -27 -33  75 NW3       30.39S
THUNDER BAY    CLEAR    -13 -18  77 NW6       30.49R WCI -27
SIOUX LOOKOUT  CLEAR    -29 -35  75 CALM      30.44R
TORONTO        CLOUDY    27  23  86 W12       30.15R WCI  16
BIG TROUT LK   CLEAR    -24 -29  76 W8        30.38F WCI -43
PICKLE LAKE    NOT AVBL
DRYDEN         CLEAR    -17 -22  76 N5        30.43S WCI -29
KENORA         CLEAR    -17 -22  76 N8        30.46R WCI -34
$$
                *** MANITOBA***

CITY           SKY/WX    TMP DP  RH WIND       PRES   REMARKS
BRANDON        MOCLDY   -22 -27  76 NW5       30.57F WCI -36
DAUPHIN        CLEAR    -20 -27  69 W6        30.62S WCI -36
ISLAND LAKE      N/A    -24 -29  76 W7        30.48F WCI -42
PILOT MOUND      N/A    -15 -22  70 N8          N/A  WCI -32
THE PAS        CLEAR    -18 -26  69 W9        30.58S WCI -38
THOMPSON       CRYSTALS -20 -27  69 W9        30.46F WCI -40
WINNIPEG       PTCLDY   -17 -26  63 NW7       30.62S WCI -33
LYNN LAKE      CLEAR    -22 -29  69 W10       30.41F WCI -44
CHURCHILL      CLEAR    -22 -31  63 NW15      30.31F WCI -48
GILLAM         CLEAR    -20 -29  63 W13       30.39S WCI -43
$$
                ***SASKATCHEWAN***

CITY           SKY/WX    TMP DP  RH WIND       PRES   REMARKS
ESTEVAN        CLOUDY    -8 -17  65 E3        30.49R
KINDERSLEY     PTCLDY   -13 -18  77 S5        30.47S WCI -25
LLOYDMINSTER   FLURRIES  -4  -9  77 SW6       30.42F WCI -16
PRINCE ALBERT  PTCLDY   -18 -26  69 VRB2      30.56F
REGINA         PTCLDY    -8 -13  77 N6        30.52R WCI -21



USA.gov is the U.S. government's official web portal to all federal, state and local government web resources and services.